Manhattan, KS

6:34 AM CST on December 08, 2016 (GMT -0600)
Manhattan Regional

Weather History for KMHK - October, 2012

Change the Weather History Date:

Tuesday, October 30, 2012

  Actual Average Record
Temperature  
Mean Temperature 50 °F 50 °F  
Max Temperature 64 °F 63 °F 79 °F (2008)
Min Temperature 35 °F 37 °F 26 °F (2015)
Degree Days  
Heating Degree Days 15 15  
Month to date heating degree days 320 312  
Since 1 July heating degree days 402 382  
Cooling Degree Days 0 0  
Month to date cooling degree days 21 21  
Year to date cooling degree days 1785 1358  
Growing Degree Days 2 (Base 50)    
Moisture  
Dew Point 32 °F    
Average Humidity 51    
Maximum Humidity 70    
Minimum Humidity 32    
Precipitation  
Precipitation 0.00 in 0.06 in 0.90 in (2013)
Month to date precipitation 0.51 2.16  
Year to date precipitation 20.72 29.87  
Sea Level Pressure  
Sea Level Pressure 30.00 in    
Wind  
Wind Speed 5 mph (ENE)    
Max Wind Speed 15 mph    
Max Gust Speed 20 mph    
Visibility 10 miles    
Events      
T = Trace of Precipitation, MM = Missing Value Source: NWS Daily Summary

Daily Weather History Graph

Daily Weather History Graph

Search for Another Location

Airport or City:

Trip Planner

Search our weather history database for the weather conditions in past years. The results will help you decide how hot, cold, wet, or windy it might be!

Date:

Astronomy

Oct. 30, 2012 Rise Set
Actual Time 7:52 AM CDT 6:27 PM CDT
Civil Twilight 7:25 AM CDT 6:55 PM CDT
Nautical Twilight 6:53 AM CDT 7:26 PM CDT
Astronomical Twilight 6:22 AM CDT 7:57 PM CDT
Moon 6:58 PM CDT (10/30) 8:39 AM CDT (10/30)
Length of Visible Light 11h 30m
Length of Day
10h 34m
Full, 99% of the Moon is Illuminated
Oct 30
Full
Nov 6
Last Quarter
Nov 13
New
Nov 20
First Quarter
Nov 28
Full

Hourly Weather History & Observations

Time (CDT) Temp. Windchill Dew Point Humidity Pressure Visibility Wind Dir Wind Speed Gust Speed Precip Events Conditions
12:52 AM 42.1 °F 40.2 °F 30.9 °F 65% 30.06 in 10.0 mi NE 3.5 mph - N/A   Clear
1:52 AM 44.6 °F - 32.0 °F 61% 30.04 in 10.0 mi Calm Calm - N/A   Clear
2:52 AM 44.1 °F - 33.1 °F 65% 30.04 in 10.0 mi Calm Calm - N/A   Overcast
3:52 AM 43.0 °F 40.3 °F 33.1 °F 68% 30.02 in 10.0 mi NE 4.6 mph - N/A   Partly Cloudy
4:52 AM 43.0 °F 39.5 °F 34.0 °F 71% 30.01 in 10.0 mi NE 5.8 mph - N/A   Overcast
5:52 AM 44.1 °F 41.5 °F 34.0 °F 68% 30.01 in 10.0 mi ENE 4.6 mph - N/A   Overcast
6:52 AM 44.1 °F 40.8 °F 33.1 °F 65% 29.98 in 10.0 mi NE 5.8 mph - N/A   Partly Cloudy
7:52 AM 42.1 °F 38.4 °F 33.1 °F 70% 29.99 in 10.0 mi NE 5.8 mph - N/A   Partly Cloudy
8:52 AM 45.0 °F 40.6 °F 33.1 °F 63% 30.00 in 10.0 mi ENE 8.1 mph - N/A   Clear
9:52 AM 48.2 °F - 33.8 °F 58% 29.99 in 10.0 mi ENE 8.1 mph - N/A   Clear
10:52 AM 51.1 °F - 34.0 °F 52% 29.99 in 10.0 mi East 9.2 mph - N/A   Clear
11:52 AM 57.9 °F - 34.0 °F 41% 29.98 in 10.0 mi East 10.4 mph - N/A   Clear
12:52 PM 61.0 °F - 34.0 °F 36% 29.98 in 10.0 mi East 10.4 mph - N/A   Clear
1:52 PM 62.1 °F - 33.1 °F 34% 29.98 in 10.0 mi East 10.4 mph - N/A   Clear
2:52 PM 63.0 °F - 33.1 °F 33% 29.97 in 10.0 mi ENE 11.5 mph - N/A   Clear
3:52 PM 63.0 °F - 32.0 °F 31% 29.96 in 10.0 mi ENE 15.0 mph - N/A   Partly Cloudy
4:52 PM 62.1 °F - 32.0 °F 32% 29.97 in 10.0 mi East 10.4 mph 17.3 mph N/A   Clear
5:52 PM 60.1 °F - 32.0 °F 35% 29.98 in 10.0 mi East 6.9 mph - N/A   Clear
6:52 PM 55.4 °F - 32.0 °F 41% 29.99 in 10.0 mi Calm Calm - N/A   Clear
7:52 PM 52.0 °F - 30.9 °F 45% 30.02 in 10.0 mi Calm Calm - N/A   Clear
8:52 PM 45.0 °F - 30.9 °F 58% 30.03 in 10.0 mi Calm Calm - N/A   Clear
9:52 PM 48.0 °F - 30.0 °F 50% 30.03 in 10.0 mi Calm Calm - N/A   Clear
10:52 PM 42.1 °F - 30.0 °F 62% 30.05 in 10.0 mi Calm Calm - N/A   Clear
11:52 PM 39.9 °F - 30.0 °F 68% 30.04 in 10.0 mi Calm Calm - N/A   Clear